| time (UTC) | temp F | wind direction | speed knots | gust knots | rain 1hr in | rain 24hr in | rain mn in | humidity % | barometer mb |
| 20260507032404 | 45 | 203 | 0.0 | 2.6 | 0.00 | 0.00 | 0.00 | 1013.6 | |
| 20260507031903 | 45 | 202 | 0.0 | 2.6 | 0.00 | 0.00 | 0.00 | 1013.9 | |
| 20260507031403 | 46 | 203 | 0.0 | 5.2 | 0.00 | 0.00 | 0.00 | 1013.6 | |
| 20260507030904 | 46 | 202 | 0.0 | 5.2 | 0.00 | 0.00 | 0.00 | 1013.6 | |
| 20260507030403 | 46 | 203 | 0.0 | 6.1 | 0.00 | 0.00 | 0.00 | 1014.3 | |
| 20260507025903 | 46 | 203 | 0.0 | 6.1 | 0.00 | 0.00 | 0.00 | 1013.6 | |
| 20260507025445 | 46 | 202 | 0.0 | 2.6 | 0.00 | 0.00 | 0.00 | 1013.6 | |
| 20260507024904 | 46 | 203 | 0.0 | 2.6 | 0.00 | 0.00 | 0.00 | 1013.9 | |
| 20260507024403 | 46 | 202 | 0.0 | 6.1 | 0.00 | 0.00 | 0.00 | 1013.6 | |
| 20260507023903 | 47 | 202 | 0.0 | 6.1 | 0.00 | 0.00 | 0.00 | 1013.9 | |
| 20260507023403 | 47 | 340 | 0.0 | 5.2 | 0.00 | 0.00 | 0.00 | 1013.6 | |
| 20260507022946 | 46 | 225 | 0.0 | 5.2 | 0.00 | 0.00 | 0.00 | 1013.6 | |
| 20260507022403 | 47 | 224 | 0.0 | 5.2 | 0.00 | 0.00 | 0.00 | 1013.9 | |
| 20260507021903 | 47 | 202 | 0.0 | 4.3 | 0.00 | 0.00 | 0.00 | 1013.6 | |
| 20260507021404 | 47 | 203 | 0.0 | 4.3 | 0.00 | 0.00 | 0.00 | 1013.9 | |
| 20260507020903 | 47 | 202 | 0.0 | 5.2 | 0.00 | 0.00 | 0.00 | 1013.6 | |
| 20260507020445 | 48 | 202 | 0.0 | 5.2 | 0.00 | 0.00 | 0.00 | 1013.6 | |
| 20260507015903 | 49 | 185 | 0.0 | 5.2 | 0.00 | 0.00 | 0.00 | 1013.6 | |
| 20260507015445 | 48 | 228 | 0.0 | 5.2 | 0.00 | 0.00 | 0.00 | 1012.9 | |
| 20260507014903 | 49 | 331 | 0.0 | 5.2 | 0.00 | 0.00 | 0.00 | 1013.2 | |
| 20260507014404 | 49 | 350 | 0.0 | 4.3 | 0.00 | 0.00 | 0.00 | 1012.9 | |
| 20260507013903 | 49 | 309 | 0.0 | 4.3 | 0.00 | 0.00 | 0.00 | 1013.2 | |
| 20260507013403 | 50 | 298 | 0.0 | 4.3 | 0.00 | 0.00 | 0.00 | 1012.9 | |
| 20260507012902 | 50 | 344 | 0.0 | 4.3 | 0.00 | 0.00 | 0.00 | 1013.2 | |
| 20260507012403 | 50 | 309 | 0.0 | 3.5 | 0.00 | 0.00 | 0.00 | 1012.9 | |
| 20260507011903 | 50 | 342 | 0.0 | 1.7 | 0.00 | 0.00 | 0.00 | 1012.9 | |
| 20260507011403 | 51 | 326 | 0.0 | 3.5 | 0.00 | 0.00 | 0.00 | 1013.2 | |
| 20260507010904 | 51 | 328 | 0.0 | 3.5 | 0.00 | 0.00 | 0.00 | 1013.6 | |
| 20260507010403 | 51 | 315 | 1.7 | 2.6 | 0.00 | 0.00 | 0.00 | 1013.9 | |
| 20260507005903 | 51 | 287 | 1.7 | 4.3 | 0.00 | 0.00 | 0.00 | 1013.6 | |
| 20260507005425 | 51 | 278 | 0.0 | 4.3 | 0.00 | 0.00 | 0.00 | 1013.6 | |
| 20260507004903 | 51 | 328 | 0.0 | 5.2 | 0.00 | 0.00 | 0.00 | 1013.2 | |
| 20260507004403 | 51 | 252 | 0.9 | 5.2 | 0.00 | 0.00 | 0.00 | 1012.9 | |
| 20260507003924 | 51 | 310 | 0.9 | 4.3 | 0.00 | 0.00 | 0.00 | 1012.9 | |
| 20260507003424 | 52 | 287 | 1.7 | 2.6 | 0.00 | 0.00 | 0.00 | 1013.2 | |
| 20260507002903 | 52 | 328 | 0.0 | 1.7 | 0.00 | 0.00 | 0.00 | 1013.6 | |
| 20260507002403 | 52 | 287 | 0.0 | 4.3 | 0.00 | 0.00 | 0.00 | 1012.9 | |
| 20260507001903 | 52 | 277 | 0.0 | 4.3 | 0.00 | 0.00 | 0.00 | 1012.9 | |
| 20260507001404 | 52 | 282 | 1.7 | 4.3 | 0.00 | 0.00 | 0.00 | 1013.2 | |
| 20260507000903 | 52 | 301 | 0.0 | 4.3 | 0.00 | 0.00 | 0.00 | 1012.9 | |
| 20260507000405 | 53 | 289 | 2.6 | 4.3 | 0.00 | 0.00 | 0.00 | 1012.9 | |
| 20260506235903 | 53 | 301 | 2.6 | 4.3 | 0.00 | 0.00 | 0.00 | 1012.6 | |
| 20260506235424 | 53 | 317 | 0.9 | 5.2 | 0.00 | 0.00 | 0.00 | 1012.6 | |
| 20260506234902 | 53 | 292 | 2.6 | 6.1 | 0.00 | 0.00 | 0.00 | 1012.9 | |
| 20260506234403 | 53 | 288 | 4.3 | 6.1 | 0.00 | 0.00 | 0.00 | 1012.9 | |
| 20260506233904 | 53 | 291 | 1.7 | 5.2 | 0.00 | 0.00 | 0.00 | 1012.9 | |
| 20260506233403 | 54 | 300 | 2.6 | 5.2 | 0.00 | 0.00 | 0.00 | 1012.9 | |
| 20260506232903 | 54 | 317 | 1.7 | 7.0 | 0.00 | 0.00 | 0.00 | 1012.6 | |
| 20260506232403 | 54 | 300 | 1.7 | 7.0 | 0.00 | 0.00 | 0.00 | 1012.6 | |
| 20260506231903 | 55 | 321 | 2.6 | 6.1 | 0.00 | 0.00 | 0.00 | 1012.6 | |
| 20260506231403 | 55 | 300 | 2.6 | 5.2 | 0.00 | 0.00 | 0.00 | 1012.9 | |
| 20260506230903 | 55 | 331 | 0.9 | 7.8 | 0.00 | 0.00 | 0.00 | 1012.6 | |
| 20260506230424 | 55 | 283 | 4.3 | 7.8 | 0.00 | 0.00 | 0.00 | 1012.6 | |
| 20260506225903 | 55 | 308 | 3.5 | 6.1 | 0.00 | 0.00 | 0.00 | 1012.9 | |
| 20260506225424 | 56 | 343 | 2.6 | 6.1 | 0.00 | 0.00 | 0.00 | 1012.9 | |
| 20260506224903 | 55 | 324 | 2.6 | 6.1 | 0.00 | 0.00 | 0.00 | 1013.2 | |
| 20260506224403 | 54 | 331 | 0.9 | 5.2 | 0.00 | 0.00 | 0.00 | 1012.9 | |
| 20260506223903 | 54 | 348 | 0.0 | 5.2 | 0.00 | 0.00 | 0.00 | 1012.9 | |
| 20260506223424 | 53 | 271 | 2.6 | 5.2 | 0.00 | 0.00 | 0.00 | 1013.2 | |
| 20260506222903 | 53 | 293 | 2.6 | 7.0 | 0.00 | 0.00 | 0.00 | 1013.2 | |
| 20260506222403 | 53 | 291 | 3.5 | 7.0 | 0.00 | 0.00 | 0.00 | 1013.2 | |
| 20260506221902 | 53 | 303 | 2.6 | 7.0 | 0.00 | 0.00 | 0.00 | 1012.6 | |
| 20260506221403 | 53 | 288 | 3.5 | 7.8 | 0.00 | 0.00 | 0.00 | 1012.9 | |
| 20260506220946 | 53 | 289 | 4.3 | 7.8 | 0.00 | 0.00 | 0.00 | 1012.9 | |
| 20260506220402 | 53 | 279 | 3.5 | 7.8 | 0.00 | 0.00 | 0.00 | 1013.2 | |
| 20260506215903 | 54 | 311 | 2.6 | 7.8 | 0.00 | 0.00 | 0.00 | 1012.6 | |
| 20260506215404 | 54 | 336 | 1.7 | 7.8 | 0.00 | 0.00 | 0.00 | 1013.2 | |
| 20260506214903 | 54 | 292 | 1.7 | 7.8 | 0.00 | 0.00 | 0.00 | 1012.9 | |
| 20260506214404 | 54 | 340 | 1.7 | 6.1 | 0.00 | 0.00 | 0.00 | 1012.6 | |
| 20260506213903 | 54 | 339 | 2.6 | 7.0 | 0.00 | 0.00 | 0.00 | 1012.6 | |
| 20260506213424 | 54 | 354 | 2.6 | 7.0 | 0.00 | 0.00 | 0.00 | 1012.6 | |
| 20260506212903 | 54 | 324 | 2.6 | 5.2 | 0.00 | 0.00 | 0.00 | 1012.6 | |
| 20260506212403 | 54 | 302 | 2.6 | 7.0 | 0.00 | 0.00 | 0.00 | 1012.9 | |
| 20260506211402 | 54 | 348 | 2.6 | 8.7 | 0.00 | 0.00 | 0.00 | 1012.6 | |
| 20260506210903 | 54 | 331 | 2.6 | 8.7 | 0.00 | 0.00 | 0.00 | 1012.2 | |
| 20260506210403 | 54 | 302 | 5.2 | 8.7 | 0.00 | 0.00 | 0.00 | 1012.6 | |
| 20260506205903 | 54 | 299 | 2.6 | 5.2 | 0.00 | 0.00 | 0.00 | 1012.2 | |
| 20260506205404 | 54 | 328 | 0.9 | 8.7 | 0.00 | 0.00 | 0.00 | 1012.9 | |
| 20260506204903 | 54 | 310 | 3.5 | 8.7 | 0.00 | 0.00 | 0.00 | 1012.2 | |
| 20260506204425 | 54 | 291 | 3.5 | 7.8 | 0.00 | 0.00 | 0.00 | 1011.9 | |
| 20260506203924 | 54 | 297 | 3.5 | 5.2 | 0.00 | 0.00 | 0.00 | 1012.2 | |
| 20260506203403 | 54 | 25 | 1.7 | 7.8 | 0.00 | 0.00 | 0.00 | 1012.2 | |
| 20260506202903 | 54 | 328 | 1.7 | 7.8 | 0.00 | 0.00 | 0.00 | 1012.6 | |
| 20260506202404 | 54 | 305 | 1.7 | 5.2 | 0.00 | 0.00 | 0.00 | 1012.9 | |
| 20260506201903 | 54 | 322 | 0.9 | 6.1 | 0.00 | 0.00 | 0.00 | 1012.2 | |
| 20260506201403 | 54 | 301 | 2.6 | 6.1 | 0.00 | 0.00 | 0.00 | 1012.9 | |
| 20260506200903 | 54 | 0 | 1.7 | 6.1 | 0.00 | 0.00 | 0.00 | 1012.6 | |
| 20260506200402 | 54 | 37 | 1.7 | 6.1 | 0.00 | 0.00 | 0.00 | 1012.2 | |
| 20260506195903 | 54 | 332 | 2.6 | 6.1 | 0.00 | 0.00 | 0.00 | 1012.6 | |
| 20260506195402 | 55 | 323 | 2.6 | 7.0 | 0.00 | 0.00 | 0.00 | 1011.9 | |
| 20260506194903 | 55 | 18 | 2.6 | 8.7 | 0.00 | 0.00 | 0.00 | 1012.6 | |
| 20260506194403 | 55 | 6 | 2.6 | 9.6 | 0.00 | 0.00 | 0.00 | 1012.2 | |
| 20260506193903 | 55 | 337 | 2.6 | 9.6 | 0.00 | 0.00 | 0.00 | 1012.2 | |
| 20260506193403 | 55 | 341 | 3.5 | 8.7 | 0.00 | 0.00 | 0.00 | 1012.6 | |
| 20260506192903 | 55 | 316 | 1.7 | 8.7 | 0.00 | 0.00 | 0.00 | 1011.9 | |
| 20260506192403 | 55 | 314 | 3.5 | 8.7 | 0.00 | 0.00 | 0.00 | 1011.9 | |
| 20260506191903 | 55 | 309 | 4.3 | 8.7 | 0.00 | 0.00 | 0.00 | 1012.6 | |
| 20260506191403 | 56 | 0 | 2.6 | 8.7 | 0.00 | 0.00 | 0.00 | 1012.2 | |
| 20260506190903 | 55 | 328 | 1.7 | 11.3 | 0.00 | 0.00 | 0.00 | 1012.6 | |
| 20260506190403 | 55 | 332 | 3.5 | 11.3 | 0.00 | 0.00 | 0.00 | 1011.9 | |
| 20260506185903 | 55 | 8 | 2.6 | 10.4 | 0.00 | 0.00 | 0.00 | 1012.2 | |
| 20260506185403 | 56 | 323 | 3.5 | 7.0 | 0.00 | 0.00 | 0.00 | 1011.9 | |
| 20260506184903 | 56 | 350 | 2.6 | 6.1 | 0.00 | 0.00 | 0.00 | 1012.2 | |
| 20260506184446 | 56 | 28 | 2.6 | 7.8 | 0.00 | 0.00 | 0.00 | 1012.2 | |
| 20260506183903 | 56 | 27 | 2.6 | 7.8 | 0.00 | 0.00 | 0.00 | 1011.9 | |
| 20260506183403 | 56 | 5 | 3.5 | 7.8 | 0.00 | 0.00 | 0.00 | 1011.9 | |
| 20260506182903 | 56 | 336 | 3.5 | 7.8 | 0.00 | 0.00 | 0.00 | 1011.9 | |
| 20260506182403 | 56 | 4 | 1.7 | 10.4 | 0.00 | 0.00 | 0.00 | 1012.2 | |
| 20260506181945 | 56 | 11 | 2.6 | 10.4 | 0.00 | 0.00 | 0.00 | 1011.5 | |
| 20260506181403 | 55 | 352 | 1.7 | 8.7 | 0.00 | 0.00 | 0.00 | 1011.9 | |
| 20260506180903 | 56 | 40 | 3.5 | 9.6 | 0.00 | 0.00 | 0.00 | 1011.9 | |
| 20260506180403 | 56 | 43 | 2.6 | 9.6 | 0.00 | 0.00 | 0.00 | 1011.9 | |
| 20260506175903 | 55 | 335 | 2.6 | 8.7 | 0.00 | 0.00 | 0.00 | 1011.9 | |
| 20260506175403 | 55 | 287 | 4.3 | 12.2 | 0.00 | 0.00 | 0.00 | 1012.2 | |
| 20260506174903 | 55 | 298 | 7.0 | 12.2 | 0.00 | 0.00 | 0.00 | 1012.9 | |
| 20260506174403 | 55 | 331 | 1.7 | 8.7 | 0.00 | 0.00 | 0.00 | 1012.2 | |
| 20260506173903 | 55 | 301 | 4.3 | 9.6 | 0.00 | 0.00 | 0.00 | 1012.6 | |
| 20260506173403 | 55 | 277 | 4.3 | 9.6 | 0.00 | 0.00 | 0.00 | 1012.2 | |
| 20260506172903 | 55 | 11 | 1.7 | 6.1 | 0.00 | 0.00 | 0.00 | 1011.9 | |
| 20260506172424 | 55 | 339 | 1.7 | 7.8 | 0.00 | 0.00 | 0.00 | 1012.6 | |
| 20260506171903 | 55 | 307 | 2.6 | 7.8 | 0.00 | 0.00 | 0.00 | 1012.6 | |
| 20260506171402 | 55 | 3 | 2.6 | 10.4 | 0.00 | 0.00 | 0.00 | 1012.6 | |
| 20260506170903 | 55 | 11 | 4.3 | 10.4 | 0.00 | 0.00 | 0.00 | 1012.2 | |
| 20260506170402 | 55 | 329 | 3.5 | 10.4 | 0.00 | 0.00 | 0.00 | 1012.2 | |
| 20260506165924 | 55 | 295 | 7.0 | 10.4 | 0.00 | 0.00 | 0.00 | 1012.6 | |
| 20260506165402 | 54 | 18 | 2.6 | 8.7 | 0.00 | 0.00 | 0.00 | 1012.6 | |
| 20260506164903 | 54 | 332 | 2.6 | 8.7 | 0.00 | 0.00 | 0.00 | 1012.6 | |
| 20260506164403 | 54 | 330 | 3.5 | 8.7 | 0.00 | 0.00 | 0.00 | 1012.6 | |
| 20260506163924 | 54 | 358 | 1.7 | 7.0 | 0.00 | 0.00 | 0.00 | 1011.9 | |
| 20260506163403 | 53 | 11 | 2.6 | 7.8 | 0.00 | 0.00 | 0.00 | 1012.2 | |
| 20260506162924 | 54 | 19 | 2.6 | 7.8 | 0.00 | 0.00 | 0.00 | 1011.9 | |
| 20260506162404 | 53 | 41 | 3.5 | 7.0 | 0.00 | 0.00 | 0.00 | 1012.2 | |
| 20260506161903 | 53 | 2 | 3.5 | 8.7 | 0.00 | 0.00 | 0.00 | 1012.2 | |
| 20260506161403 | 53 | 0 | 3.5 | 8.7 | 0.00 | 0.00 | 0.00 | 1011.9 | |
| 20260506160924 | 52 | 337 | 2.6 | 5.2 | 0.00 | 0.00 | 0.00 | 1012.2 | |
| 20260506160403 | 52 | 271 | 3.5 | 5.2 | 0.00 | 0.00 | 0.00 | 1012.6 | |
| 20260506155903 | 52 | 356 | 1.7 | 8.7 | 0.00 | 0.00 | 0.00 | 1011.9 | |
| 20260506155404 | 52 | 21 | 3.5 | 8.7 | 0.00 | 0.00 | 0.00 | 1012.2 | |
| 20260506154904 | 51 | 356 | 1.7 | 7.8 | 0.00 | 0.00 | 0.00 | 1012.6 | |
| 20260506154403 | 51 | 295 | 1.7 | 7.8 | 0.00 | 0.00 | 0.00 | 1012.9 | |
| 20260506153903 | 51 | 308 | 4.3 | 7.8 | 0.00 | 0.00 | 0.00 | 1012.6 | |
| 20260506153403 | 51 | 310 | 1.7 | 7.8 | 0.00 | 0.00 | 0.00 | 1012.6 | |
| 20260506152905 | 51 | 331 | 1.7 | 7.8 | 0.00 | 0.00 | 0.00 | 1012.6 | |
| 20260506152403 | 51 | 334 | 3.5 | 7.8 | 0.00 | 0.00 | 0.00 | 1012.6 | |
| 20260506151903 | 50 | 36 | 2.6 | 7.0 | 0.00 | 0.00 | 0.00 | 1011.5 | |
| 20260506151402 | 50 | 313 | 1.7 | 7.8 | 0.00 | 0.00 | 0.00 | 1011.5 | |
| 20260506150903 | 50 | 322 | 2.6 | 7.8 | 0.00 | 0.00 | 0.00 | 1011.5 | |
| 20260506150424 | 50 | 5 | 2.6 | 8.7 | 0.00 | 0.00 | 0.00 | 1011.2 | |
| 20260506145903 | 50 | 36 | 3.5 | 8.7 | 0.00 | 0.00 | 0.00 | 1011.5 | |
| 20260506145403 | 50 | 16 | 3.5 | 8.7 | 0.00 | 0.00 | 0.00 | 1011.2 | |
| 20260506144903 | 50 | 5 | 4.3 | 8.7 | 0.00 | 0.00 | 0.00 | 1011.2 | |
| 20260506144404 | 50 | 317 | 2.6 | 7.0 | 0.00 | 0.00 | 0.00 | 1011.5 | |
| 20260506143903 | 49 | 24 | 3.5 | 7.8 | 0.00 | 0.00 | 0.00 | 1011.2 | |
| 20260506143424 | 49 | 313 | 4.3 | 7.8 | 0.00 | 0.00 | 0.00 | 1011.5 | |
| 20260506142924 | 49 | 16 | 2.6 | 7.8 | 0.00 | 0.00 | 0.00 | 1011.5 | |
| 20260506141403 | 49 | 29 | 1.7 | 6.1 | 0.00 | 0.00 | 0.00 | 1010.9 | |
| 20260506140903 | 48 | 317 | 2.6 | 6.1 | 0.00 | 0.00 | 0.00 | 1010.9 | |
| 20260506140403 | 48 | 333 | 1.7 | 6.1 | 0.00 | 0.00 | 0.00 | 1010.9 | |
| 20260506135903 | 48 | 327 | 2.6 | 6.1 | 0.00 | 0.00 | 0.00 | 1011.5 | |
| 20260506135403 | 47 | 285 | 1.7 | 7.0 | 0.00 | 0.00 | 0.00 | 1011.2 | |
| 20260506134903 | 47 | 327 | 3.5 | 7.0 | 0.00 | 0.00 | 0.00 | 1011.2 | |
| 20260506134402 | 47 | 15 | 1.7 | 7.0 | 0.00 | 0.00 | 0.00 | 1011.2 | |
| 20260506133903 | 47 | 319 | 2.6 | 7.0 | 0.00 | 0.00 | 0.00 | 1010.9 | |
| 20260506133446 | 47 | 0 | 0.0 | 7.8 | 0.00 | 0.00 | 0.00 | 1011.5 | |
| 20260506132903 | 46 | 314 | 2.6 | 7.8 | 0.00 | 0.00 | 0.00 | 1011.2 | |
| 20260506132403 | 46 | 319 | 2.6 | 6.1 | 0.00 | 0.00 | 0.00 | 1010.9 | |
| 20260506131905 | 46 | 1 | 1.7 | 6.1 | 0.00 | 0.00 | 0.00 | 1010.5 | |
| 20260506131403 | 46 | 11 | 1.7 | 6.1 | 0.00 | 0.00 | 0.00 | 1010.9 | |
| 20260506130903 | 45 | 355 | 1.7 | 6.1 | 0.00 | 0.00 | 0.00 | 1011.5 | |
| 20260506130403 | 45 | 333 | 1.7 | 6.1 | 0.00 | 0.00 | 0.00 | 1010.5 | |
| 20260506125903 | 45 | 328 | 2.6 | 5.2 | 0.00 | 0.00 | 0.00 | 1010.5 | |
| 20260506125403 | 45 | 20 | 2.6 | 5.2 | 0.00 | 0.00 | 0.00 | 1010.2 | |
| 20260506124924 | 45 | 335 | 1.7 | 4.3 | 0.00 | 0.00 | 0.00 | 1010.5 | |
| 20260506124403 | 45 | 339 | 1.7 | 5.2 | 0.00 | 0.00 | 0.00 | 1010.5 | |
| 20260506123903 | 45 | 349 | 1.7 | 6.1 | 0.00 | 0.00 | 0.00 | 1010.2 | |
| 20260506123403 | 44 | 346 | 1.7 | 7.0 | 0.00 | 0.00 | 0.00 | 1010.2 | |
| 20260506122924 | 44 | 7 | 2.6 | 7.0 | 0.00 | 0.00 | 0.00 | 1010.9 | |
| 20260506122403 | 44 | 312 | 2.6 | 5.2 | 0.00 | 0.00 | 0.00 | 1010.2 | |
| 20260506121945 | 44 | 318 | 1.7 | 6.1 | 0.00 | 0.00 | 0.00 | 1010.2 | |
| 20260506121424 | 44 | 11 | 2.6 | 6.1 | 0.00 | 0.00 | 0.00 | 1010.2 | |
| 20260506120924 | 44 | 344 | 1.7 | 6.1 | 0.00 | 0.00 | 0.00 | 1009.9 | |
| 20260506120424 | 44 | 7 | 1.7 | 6.1 | 0.00 | 0.00 | 0.00 | 1009.9 | |
| 20260506115903 | 44 | 338 | 1.7 | 6.1 | 0.00 | 0.00 | 0.00 | 1009.9 | |
| 20260506114424 | 44 | 349 | 1.7 | 5.2 | 0.00 | 0.00 | 0.00 | 1009.9 | |
| 20260506113903 | 44 | 6 | 1.7 | 6.1 | 0.00 | 0.00 | 0.00 | 1009.5 | |
| 20260506113403 | 43 | 21 | 1.7 | 6.1 | 0.00 | 0.00 | 0.00 | 1008.8 | |
| 20260506112903 | 43 | 9 | 2.6 | 6.1 | 0.00 | 0.00 | 0.00 | 1008.5 | |
| 20260506112403 | 43 | 26 | 2.6 | 5.2 | 0.00 | 0.00 | 0.00 | 1008.5 | |
| 20260506111924 | 43 | 349 | 0.9 | 5.2 | 0.00 | 0.00 | 0.00 | 1008.8 | |
| 20260506111403 | 43 | 336 | 1.7 | 5.2 | 0.00 | 0.00 | 0.00 | 1009.5 | |
| 20260506110903 | 43 | 3 | 0.9 | 4.3 | 0.00 | 0.00 | 0.00 | 1009.5 | |
| 20260506110424 | 43 | 355 | 1.7 | 7.0 | 0.00 | 0.00 | 0.00 | 1009.9 | |
| 20260506105903 | 43 | 337 | 2.6 | 7.0 | 0.00 | 0.00 | 0.00 | 1008.8 | |
| 20260506105403 | 43 | 336 | 1.7 | 3.5 | 0.00 | 0.00 | 0.00 | 1008.5 | |
| 20260506104903 | 43 | 322 | 0.9 | 3.5 | 0.00 | 0.00 | 0.00 | 1008.5 | |
| 20260506104403 | 43 | 349 | 0.9 | 4.3 | 0.00 | 0.00 | 0.00 | 1008.8 | |
| 20260506103903 | 43 | 345 | 1.7 | 6.1 | 0.00 | 0.00 | 0.00 | 1008.2 | |
| 20260506103403 | 43 | 340 | 1.7 | 6.1 | 0.00 | 0.00 | 0.00 | 1008.2 | |
| 20260506102903 | 43 | 356 | 2.6 | 6.1 | 0.00 | 0.00 | 0.00 | 1008.2 | |
| 20260506102403 | 43 | 349 | 1.7 | 5.2 | 0.00 | 0.00 | 0.00 | 1007.8 | |
| 20260506101903 | 43 | 19 | 2.6 | 9.6 | 0.00 | 0.00 | 0.00 | 1008.2 | |
| 20260506101403 | 44 | 0 | 2.6 | 9.6 | 0.00 | 0.00 | 0.00 | 1008.2 | |
| 20260506100903 | 44 | 357 | 1.7 | 5.2 | 0.00 | 0.00 | 0.00 | 1008.8 | |
| 20260506100403 | 44 | 323 | 1.7 | 6.1 | 0.00 | 0.00 | 0.00 | 1008.8 | |
| 20260506095903 | 44 | 326 | 2.6 | 7.0 | 0.00 | 0.00 | 0.00 | 1008.2 | |
| 20260506095403 | 44 | 334 | 1.7 | 7.0 | 0.00 | 0.00 | 0.00 | 1008.2 | |
| 20260506094903 | 44 | 318 | 1.7 | 5.2 | 0.00 | 0.00 | 0.00 | 1007.8 | |
| 20260506094403 | 44 | 337 | 1.7 | 5.2 | 0.00 | 0.00 | 0.00 | 1007.5 | |
| 20260506093904 | 44 | 359 | 0.0 | 5.2 | 0.00 | 0.00 | 0.00 | 1007.8 | |
| 20260506093403 | 44 | 345 | 0.9 | 5.2 | 0.00 | 0.00 | 0.00 | 1007.8 | |
| 20260506092903 | 44 | 351 | 0.0 | 4.3 | 0.00 | 0.00 | 0.00 | 1007.5 | |
| 20260506092403 | 43 | 38 | 2.6 | 6.1 | 0.00 | 0.00 | 0.00 | 1006.8 | |
| 20260506091903 | 44 | 25 | 2.6 | 7.8 | 0.00 | 0.00 | 0.00 | 1007.1 | |
| 20260506091424 | 44 | 22 | 1.7 | 7.8 | 0.00 | 0.00 | 0.00 | 1007.5 | |
| 20260506090903 | 44 | 22 | 1.7 | 5.2 | 0.00 | 0.00 | 0.00 | 1007.8 | |
| 20260506090403 | 44 | 16 | 1.7 | 6.1 | 0.00 | 0.00 | 0.00 | 1007.5 | |
| 20260506085903 | 43 | 2 | 1.7 | 6.1 | 0.00 | 0.00 | 0.00 | 1007.5 | |
| 20260506085403 | 44 | 352 | 1.7 | 7.8 | 0.00 | 0.00 | 0.00 | 1007.8 | |
| 20260506084903 | 44 | 33 | 2.6 | 7.8 | 0.00 | 0.00 | 0.00 | 1007.8 | |
| 20260506084403 | 43 | 31 | 3.5 | 8.7 | 0.00 | 0.00 | 0.00 | 1007.1 | |
| 20260506083903 | 43 | 43 | 1.7 | 8.7 | 0.00 | 0.00 | 0.00 | 1007.1 | |
| 20260506083403 | 43 | 5 | 2.6 | 6.1 | 0.00 | 0.00 | 0.00 | 1007.1 | |
| 20260506082903 | 43 | 12 | 1.7 | 6.1 | 0.00 | 0.00 | 0.00 | 1007.8 | |
| 20260506082404 | 43 | 25 | 1.7 | 6.1 | 0.00 | 0.00 | 0.00 | 1008.2 | |
| 20260506081903 | 43 | 3 | 1.7 | 9.6 | 0.00 | 0.00 | 0.00 | 1007.5 | |
| 20260506081403 | 43 | 349 | 3.5 | 10.4 | 0.00 | 0.00 | 0.00 | 1007.5 | |
| 20260506080903 | 43 | 12 | 1.7 | 10.4 | 0.00 | 0.00 | 0.00 | 1007.1 | |
| 20260506080403 | 43 | 357 | 2.6 | 9.6 | 0.00 | 0.00 | 0.00 | 1007.8 | |
| 20260506073424 | 44 | 35 | 2.6 | 10.4 | 0.00 | 0.00 | 0.00 | 1008.2 | |
| 20260506072903 | 44 | 358 | 2.6 | 10.4 | 0.00 | 0.00 | 0.00 | 1007.8 | |
| 20260506072403 | 44 | 345 | 1.7 | 7.0 | 0.00 | 0.00 | 0.00 | 1007.8 | |
| 20260506071903 | 44 | 356 | 1.7 | 7.0 | 0.00 | 0.00 | 0.00 | 1007.5 | |
| 20260506071403 | 44 | 345 | 1.7 | 6.1 | 0.00 | 0.00 | 0.00 | 1007.5 | |
| 20260506070903 | 44 | 332 | 1.7 | 8.7 | 0.00 | 0.00 | 0.00 | 1007.5 | |
| 20260506070403 | 44 | 345 | 2.6 | 8.7 | 0.00 | 0.00 | 0.00 | 1007.8 | |
| 20260506062404 | 45 | 7 | 3.5 | 7.8 | 0.00 | 0.00 | 0.00 | 1007.5 | |
| 20260506061903 | 45 | 12 | 2.6 | 7.8 | 0.00 | 0.00 | 0.00 | 1007.1 | |
| 20260506061424 | 45 | 14 | 2.6 | 7.8 | 0.00 | 0.00 | 0.00 | 1006.8 | |
| 20260506060924 | 45 | 29 | 2.6 | 9.6 | 0.00 | 0.00 | 0.00 | 1007.1 | |
| 20260506060403 | 46 | 43 | 3.5 | 9.6 | 0.00 | 0.00 | 0.00 | 1007.5 | |
| 20260506050903 | 47 | 17 | 2.6 | 9.6 | 0.00 | 0.00 | 0.00 | 1008.2 | |
| 20260506050403 | 47 | 351 | 1.7 | 9.6 | 0.00 | 0.00 | 0.00 | 1007.5 | |
| 20260506044924 | 47 | 348 | 2.6 | 6.1 | 0.00 | 0.00 | 0.00 | 1006.8 | |
| 20260506044403 | 47 | 333 | 1.7 | 8.7 | 0.00 | 0.00 | 0.00 | 1006.8 | |
| 20260506043903 | 47 | 10 | 1.7 | 10.4 | 0.00 | 0.00 | 0.00 | 1006.8 | |
| 20260506043403 | 47 | 22 | 4.3 | 10.4 | 0.00 | 0.00 | 0.00 | 1006.5 | |
| 20260506042903 | 48 | 25 | 4.3 | 8.7 | 0.00 | 0.00 | 0.00 | 1007.1 | |
| 20260506042402 | 48 | 358 | 3.5 | 7.8 | 0.00 | 0.00 | 0.00 | 1006.8 | |
| 20260506041903 | 48 | 0 | 2.6 | 7.8 | 0.00 | 0.00 | 0.00 | 1007.1 | |
| 20260506041403 | 48 | 23 | 3.5 | 10.4 | 0.00 | 0.00 | 0.00 | 1007.1 | |
| 20260506040903 | 49 | 357 | 3.5 | 10.4 | 0.00 | 0.00 | 0.00 | 1007.1 | |
| 20260506040403 | 49 | 4 | 2.6 | 7.8 | 0.00 | 0.00 | 0.00 | 1007.1 | |
| 20260506035903 | 49 | 353 | 2.6 | 7.8 | 0.00 | 0.00 | 0.00 | 1006.8 | |
| 20260506035403 | 49 | 357 | 1.7 | 6.1 | 0.00 | 0.00 | 0.00 | 1006.5 | |
| 20260506034904 | 49 | 19 | 2.6 | 6.1 | 0.00 | 0.00 | 0.00 | 1005.8 | |
| 20260506034403 | 49 | 0 | 0.9 | 5.2 | 0.00 | 0.00 | 0.00 | 1006.5 | |
| 20260506033903 | 49 | 12 | 1.7 | 5.2 | 0.00 | 0.00 | 0.00 | 1005.8 | |
| 20260506033403 | 49 | 17 | 2.6 | 5.2 | 0.00 | 0.00 | 0.00 | 1006.1 | |
| 20260506032902 | 49 | 19 | 0.9 | 4.3 | 0.00 | 0.00 | 0.00 | 1006.1 |